Location: Fenile
(46.0500°N, 9.5500°E)
Time: 06:32:27
(UTC+00:00)

USA 305 - Pass Details

Date: 03 March 2021
Orbit: 564 x 577 km, 54.0° (Epoch: 10 April)

Event Time Altitude Azimuth Distance (km) Brightness Sun altitude
Rises 18:04:56 0° 279° (W) 2,783 8.5 -10.1°
Reaches altitude 10° 18:07:25 10° 291° (WNW) 1,883 6.8 -10.6°
Maximum altitude 18:11:11 29° 352° (N) 1,062 4.4 -11.2°
Enters shadow 18:14:51 11° 53° (NE) 1,843 5.0 -11.8°
